Starlink 34617

operational
NORAD ID: 65015 Int'l Des: 2025-161 Owner: SPXS Country: US Constellation: starlink
LEOCIRCULAR

About Starlink 34617

Description loading...

Live Position

Loading 3D Globe...

Upcoming Passes

Altitude History

Altitude vs Time

uPlot chart will show altitude changes over time

Two-Line Element Set

1 65015U 25161A 26063.12014562 .00035685 00000-0 12102-2 0 9995
2 65015 53.1608 320.3252 0000779 305.7458 54.3470 15.30226821 33373
Epoch: Mar 4, 2026 • Age: 24 hours

Current Status

Altitude 476.2 km
Velocity 7.63 km/s
Sub-Earth Point 23.49°N, 44.11°W
Launch Date Jul 30, 2025
Age 0.5 years
Type internet

Technical Details

Classification Payload
Mass 575.00 kg
Dry Mass 530.00 kg
Total Mass 575.00 kg
Length 0.30 m
Diameter 4.10 m
Span 29.00 m
Shape Box + pan
Manufacturer SPXS
Bus Type Starlink V2MO
Phase Status In Orbit
Owner/State SPXS/US

Large Constellations

Loading constellations...